Regional Weather Roundup
Issued by NWS

Home | Current Version | Previous Version | Graphics & Text | Print | Product List | Glossary On
Versions: 1 2 3 4 5 6 7 8 9 10 11 12 13 14 15 16 17 18 19 20 21 22 23 24 25 26 27 28 29 30 31 32 33 34 35 36 37 38 39 40 41 42 43 44 45 46 47 48 49 50
000
ASUS43 KDTX 290301
RWRMI
MICHIGAN HOURLY REGIONAL WEATHER ROUNDUP
NATIONAL WEATHER SERVICE DETROIT/PONTIAC MI
1100 PM EDT SAT MAR 28 2015

NOTE: "FAIR" INDICATES FEW OR NO CLOUDS BELOW 12,000 FEET WITH NO
SIGNIFICANT WEATHER AND/OR OBSTRUCTION TO VISIBILITY.

MIZ047>049-052>055-059>063-066>070-074>076-081>083-290400-
SOUTHEAST LOWER MICHIGAN

CITY           SKY/WX    TMP DP  RH WIND       PRES   REMARKS
ADRIAN         CLEAR     25  12  58 CALM      30.30S
ALMA           CLEAR     28  12  52 W7        30.28R WCI  20
ANN ARBOR      CLEAR     21   9  59 CALM      30.29S
BAD AXE        CLEAR     27  11  51 SW6       30.26S WCI  20
CARO           CLEAR     24  11  56 SW3       30.27R
DETROIT CITY   CLEAR     28  15  58 S3        30.31R
DETROIT        CLEAR     28  14  55 CALM      30.31R
FLINT          CLEAR     28  11  48 S6        30.28S WCI  22
GROSSE ILE     CLEAR     28  21  74 CALM      30.30R
HILLSDALE      CLEAR     27   7  43 CALM      30.27S
HOWELL         CLEAR     23  10  55 CALM      30.27S

CITY           SKY/WX    TMP DP  RH WIND       PRES   REMARKS
JACKSON        CLEAR     23  10  57 CALM      30.28R
LAMBERTVILLE   CLEAR     27  14  59 CALM      30.31S
LANSING        FAIR      28  10  46 W6        30.29R WCI  22
LAPEER         FAIR      24  10  56 S3        30.27S
MASON          FAIR      24  19  78 CALM      30.28R
MONROE         CLEAR     27  18  69 CALM      30.30R
MT. CLEMENS    CLEAR     23  18  80 S3        30.28R
PONTIAC        CLEAR     24   9  52 CALM      30.27R
PORT HOPE        N/A     24  17  74 S3        30.25R
PORT HURON     CLEAR     19  16  86 S3        30.30R
TRI CITIES     CLEAR     27  12  53 SW6       30.28R WCI  20
TROY           CLEAR     29  11  47 CALM      30.31S
SAGINAW HB     CLEAR     28  14  54 SW7       30.27R WCI  21
$$
MIZ043>046-050>051-056>058-064>065-071>073-077>080-290400-
SOUTHWEST LOWER MICHIGAN

CITY           SKY/WX    TMP DP  RH WIND       PRES   REMARKS
BATTLE CREEK   CLEAR     25  10  53 W5        30.30R WCI  19
BENTON HARBOR  CLEAR     17  11  77 CALM      30.31S
BIG RAPIDS     CLEAR     25  11  54 CALM      30.25S
COLDWATER      CLEAR     26  10  50 CALM      30.30R
FREMONT        FAIR      23   7  50 CALM      30.27R
HOLLAND        CLEAR     22  13  68 SE3       30.30F
GRAND RAPIDS   CLEAR     23  10  57 SW6       30.30R WCI  16
IONIA          FAIR      27  11  51 W7        30.28S WCI  19
KALAMAZOO      CLEAR     26  11  52 W3        30.30R
LUDINGTON      CLEAR     26  10  50 S6        30.27S WCI  19
MARSHALL       CLEAR     25  10  53 CALM      30.29R
MOUNT PLEASANT CLEAR     28  10  45 W7        30.27R WCI  21
MUSKEGON       CLEAR     23  12  62 S6        30.30R WCI  16
SOUTH HAVEN    CLEAR     19  11  70 CALM      30.31S
$$
MIZ016>042-290400-
NORTHERN LOWER MICHIGAN

CITY           SKY/WX    TMP DP  RH WIND       PRES   REMARKS
ALPENA         CLEAR     20  15  81 CALM      30.24S
BEAVER ISLAND  CLEAR     26  17  69 S7        30.20F WCI  18
BELLAIRE       CLEAR     20  13  75 CALM      30.24S
CADILLAC       CLEAR     23   7  51 SW3       30.21S
CHARLEVOIX     CLEAR     25   8  48 S6        30.25S WCI  18
FRANKFORT      CLEAR     28   5  37 CALM      30.24F
GAYLORD        CLEAR     21   7  54 SW5       30.19F WCI  15
GRAYLING       CLEAR     19   9  64 CALM      30.22F
HARBOR SPRINGS CLEAR     18  10  70 CALM      30.21F
HOUGHTON LAKE  CLEAR     24   8  50 W3        30.23R
MANISTEE       CLEAR     25  10  54 CALM      30.25F
OSCODA         CLEAR     19  13  79 CALM      30.24R
PELLSTON       CLEAR     18   9  68 SE3       30.21F
ROGERS CITY    CLEAR     21  10  63 CALM      30.23F
TRAVERSE CITY  CLEAR     26   5  40 CALM      30.23S
$$
MIZ007>008-015-290400-
EASTERN UPPER MICHIGAN

CITY           SKY/WX    TMP DP  RH WIND       PRES   REMARKS
KINROSS        CLEAR     19  18  93 SW3       30.19F
MACKINAC ISLAN CLEAR     21   9  60 S7        30.20S WCI  13
NEWBERRY       CLEAR     21  19  91 S10       30.15F WCI  10
S. S. MARIE    CLEAR     20  11  68 SW5       30.18S WCI  13
$$
MIZ004>006-011>014-085-290400-
CENTRAL UPPER MICHIGAN

CITY           SKY/WX    TMP DP  RH WIND       PRES   REMARKS
MANISTIQUE     MOCLDY    29  26  88 S12G20    30.16F WCI  19
ESCANABA       PTCLDY    30  25  80 S14       30.15S WCI  20
MENOMINEE      MOCLDY    28  21  74 SW9       30.16F WCI  20
SAWYER-GWINN   CLEAR     27  17  64 S13       30.07F WCI  16
$$
MIZ001>003-009>011-084-290400-
WESTERN UPPER MICHIGAN

CITY           SKY/WX    TMP DP  RH WIND       PRES   REMARKS
IRON MOUNTAIN  MOCLDY    31  10  41 S7        30.08F WCI  24
HOUGHTON       MOCLDY    25  11  55 VRB6      29.99F WCI  18
COPPER HARBOR    N/A     26  10  50 SW7       30.01F WCI  18
IRONWOOD       MOCLDY    36  12  38 S9        29.97F WCI  29
$$

ABBREVIATIONS USED IN REMARKS
   TC - TEMPERATURE IN CELSIUS
  WCI - WIND CHILL INDEX
   HX - HEAT INDEX
  VSB - VISIBILITY




USA.gov is the U.S. government's official web portal to all federal, state and local government web resources and services.